| time (UTC) | temp F | wind direction | speed knots | gust knots | rain 1hr in | rain 24hr in | rain mn in | humidity % | barometer mb |
| 20260507150058 | 59 | 9 | 0.0 | 4.3 | 0.00 | 0.00 | 0.00 | 62 | 1021.1 |
| 20260507144553 | 59 | 0 | 0.0 | 0.0 | 0.00 | 0.00 | 0.00 | 60 | 1021.1 |
| 20260507143053 | 58 | 0 | 0.0 | 2.6 | 0.00 | 0.00 | 0.00 | 61 | 1021.1 |
| 20260507141548 | 58 | 0 | 0.0 | 2.6 | 0.00 | 0.00 | 0.00 | 65 | 1021.3 |
| 20260507140049 | 58 | 0 | 0.0 | 2.6 | 0.00 | 0.00 | 0.00 | 64 | 1021.5 |
| 20260507134558 | 58 | 0 | 0.0 | 3.5 | 0.00 | 0.00 | 0.00 | 64 | 1021.7 |
| 20260507133056 | 57 | 352 | 0.9 | 3.5 | 0.00 | 0.00 | 0.00 | 67 | 1021.8 |
| 20260507131554 | 57 | 0 | 0.9 | 3.5 | 0.00 | 0.00 | 0.00 | 67 | 1021.8 |
| 20260507130103 | 57 | 0 | 1.7 | 5.2 | 0.00 | 0.00 | 0.00 | 65 | 1021.7 |
| 20260507124618 | 58 | 0 | 0.0 | 3.5 | 0.00 | 0.00 | 0.00 | 66 | 1021.7 |
| 20260507123107 | 58 | 0 | 0.0 | 0.0 | 0.00 | 0.00 | 0.00 | 63 | 1021.5 |
| 20260507121600 | 59 | 0 | 0.0 | 3.5 | 0.00 | 0.00 | 0.00 | 62 | 1021.4 |
| 20260507120055 | 59 | 0 | 0.0 | 3.5 | 0.00 | 0.00 | 0.00 | 60 | 1021.5 |
| 20260507114556 | 59 | 5 | 0.9 | 3.5 | 0.00 | 0.00 | 0.00 | 61 | 1021.4 |
| 20260507113056 | 59 | 0 | 0.0 | 4.3 | 0.00 | 0.00 | 0.00 | 61 | 1021.5 |
| 20260507111556 | 60 | 0 | 0.0 | 4.3 | 0.00 | 0.00 | 0.00 | 58 | 1021.5 |
| 20260507110058 | 62 | 0 | 0.0 | 2.6 | 0.00 | 0.00 | 0.00 | 54 | 1021.5 |
| 20260507104555 | 63 | 0 | 0.0 | 4.3 | 0.00 | 0.00 | 0.00 | 52 | 1021.6 |
| 20260507103051 | 62 | 0 | 0.0 | 0.9 | 0.00 | 0.00 | 0.00 | 55 | 1021.6 |
| 20260507101559 | 60 | 0 | 0.0 | 4.3 | 0.00 | 0.00 | 0.00 | 59 | 1021.6 |
| 20260507100112 | 59 | 0 | 0.0 | 4.3 | 0.00 | 0.00 | 0.00 | 61 | 1021.5 |
| 20260507094553 | 58 | 345 | 0.0 | 3.5 | 0.00 | 0.00 | 0.00 | 66 | 1021.5 |
| 20260507093053 | 58 | 330 | 1.7 | 7.8 | 0.00 | 0.00 | 0.00 | 66 | 1021.4 |
| 20260507091558 | 58 | 0 | 1.7 | 5.2 | 0.00 | 0.00 | 0.00 | 66 | 1021.3 |
| 20260507090055 | 58 | 80 | 0.9 | 4.3 | 0.00 | 0.00 | 0.00 | 68 | 1021.2 |
| 20260507084551 | 57 | 23 | 0.9 | 4.3 | 0.00 | 0.00 | 0.00 | 68 | 1021.1 |
| 20260507083106 | 57 | 346 | 1.7 | 4.3 | 0.00 | 0.00 | 0.00 | 70 | 1021.1 |
| 20260507081558 | 56 | 96 | 0.9 | 3.5 | 0.00 | 0.00 | 0.00 | 70 | 1021.3 |
| 20260507080053 | 55 | 360 | 0.9 | 4.3 | 0.00 | 0.00 | 0.00 | 73 | 1021.1 |
| 20260507074558 | 54 | 9 | 1.7 | 4.3 | 0.00 | 0.00 | 0.00 | 74 | 1021.0 |
| 20260507073058 | 53 | 351 | 1.7 | 5.2 | 0.00 | 0.00 | 0.00 | 74 | 1021.0 |
| 20260507071553 | 53 | 9 | 1.7 | 3.5 | 0.00 | 0.00 | 0.00 | 79 | 1021.0 |
| 20260507070051 | 52 | 360 | 1.7 | 4.3 | 0.00 | 0.00 | 0.00 | 80 | 1020.9 |
| 20260507064553 | 52 | 0 | 1.7 | 4.3 | 0.00 | 0.00 | 0.00 | 81 | 1020.9 |
| 20260507063051 | 51 | 346 | 0.0 | 4.3 | 0.00 | 0.00 | 0.00 | 85 | 1020.8 |
| 20260507061552 | 50 | 355 | 1.7 | 4.3 | 0.00 | 0.00 | 0.00 | 86 | 1020.8 |
| 20260507060057 | 49 | 9 | 0.9 | 4.3 | 0.00 | 0.00 | 0.00 | 87 | 1020.6 |
| 20260507054546 | 49 | 355 | 1.7 | 3.5 | 0.00 | 0.00 | 0.00 | 87 | 1020.6 |
| 20260507053051 | 49 | 5 | 1.7 | 4.3 | 0.00 | 0.00 | 0.00 | 87 | 1020.5 |
| 20260507051549 | 49 | 360 | 0.9 | 3.5 | 0.00 | 0.00 | 0.00 | 88 | 1020.4 |
| 20260507050051 | 48 | 360 | 0.9 | 2.6 | 0.00 | 0.00 | 0.00 | 88 | 1020.2 |
| 20260507044551 | 48 | 360 | 0.9 | 1.7 | 0.00 | 0.00 | 0.00 | 87 | 1020.1 |
| 20260507043055 | 48 | 0 | 0.0 | 1.7 | 0.00 | 0.00 | 0.00 | 87 | 1020.0 |
| 20260507041550 | 49 | 360 | 0.9 | 3.5 | 0.00 | 0.00 | 0.00 | 86 | 1019.8 |
| 20260507040054 | 49 | 352 | 0.9 | 3.5 | 0.00 | 0.00 | 0.00 | 86 | 1019.6 |
| 20260507034553 | 49 | 10 | 0.9 | 3.5 | 0.00 | 0.00 | 0.00 | 86 | 1019.5 |
| 20260507033054 | 49 | 0 | 0.9 | 2.6 | 0.00 | 0.00 | 0.00 | 86 | 1019.4 |
| 20260507031552 | 49 | 5 | 1.7 | 3.5 | 0.00 | 0.00 | 0.00 | 86 | 1019.3 |
| 20260507030052 | 49 | 360 | 1.7 | 4.3 | 0.00 | 0.00 | 0.00 | 87 | 1019.3 |
| 20260507024602 | 49 | 80 | 0.0 | 1.7 | 0.00 | 0.00 | 0.00 | 87 | 1019.3 |
| 20260507023057 | 49 | 0 | 0.0 | 0.0 | 0.00 | 0.00 | 0.00 | 87 | 1019.2 |
| 20260507021556 | 49 | 0 | 0.0 | 0.0 | 0.00 | 0.00 | 0.00 | 87 | 1019.1 |
| 20260507020107 | 49 | 0 | 0.0 | 0.0 | 0.00 | 0.00 | 0.00 | 87 | 1018.9 |
| 20260507014607 | 49 | 0 | 0.0 | 0.0 | 0.00 | 0.00 | 0.00 | 87 | 1018.9 |
| 20260507013055 | 49 | 0 | 0.0 | 0.0 | 0.00 | 0.00 | 0.00 | 87 | 1018.9 |
| 20260507011558 | 49 | 0 | 0.0 | 0.0 | 0.00 | 0.00 | 0.00 | 86 | 1018.9 |
| 20260507010053 | 49 | 0 | 0.0 | 0.0 | 0.00 | 0.00 | 0.00 | 86 | 1018.9 |
| 20260507004557 | 49 | 0 | 0.0 | 0.0 | 0.00 | 0.00 | 0.00 | 86 | 1018.8 |
| 20260507003052 | 50 | 0 | 0.0 | 0.0 | 0.00 | 0.00 | 0.00 | 85 | 1018.7 |
| 20260507001557 | 50 | 0 | 0.0 | 0.0 | 0.00 | 0.00 | 0.00 | 84 | 1018.6 |
| 20260507000054 | 50 | 0 | 0.0 | 0.0 | 0.00 | 0.00 | 0.00 | 84 | 1018.6 |
| 20260506234600 | 50 | 0 | 0.0 | 0.0 | 0.00 | 0.00 | 0.00 | 83 | 1018.6 |
| 20260506233052 | 50 | 0 | 0.0 | 0.0 | 0.00 | 0.00 | 0.00 | 83 | 1018.5 |
| 20260506231556 | 50 | 0 | 0.0 | 0.0 | 0.00 | 0.00 | 0.00 | 82 | 1018.4 |
| 20260506230059 | 51 | 0 | 0.0 | 0.0 | 0.00 | 0.00 | 0.00 | 82 | 1018.3 |
| 20260506224551 | 51 | 0 | 0.0 | 0.0 | 0.00 | 0.00 | 0.00 | 81 | 1018.3 |
| 20260506223056 | 51 | 0 | 0.0 | 0.0 | 0.00 | 0.00 | 0.00 | 80 | 1018.2 |
| 20260506221550 | 51 | 0 | 0.0 | 0.0 | 0.00 | 0.00 | 0.00 | 79 | 1018.2 |
| 20260506220052 | 52 | 0 | 0.0 | 0.0 | 0.00 | 0.00 | 0.00 | 76 | 1018.1 |
| 20260506214552 | 52 | 0 | 0.0 | 0.0 | 0.00 | 0.00 | 0.00 | 75 | 1018.0 |
| 20260506213104 | 52 | 0 | 0.0 | 0.9 | 0.00 | 0.00 | 0.00 | 74 | 1017.9 |
| 20260506211603 | 52 | 0 | 0.0 | 1.7 | 0.00 | 0.00 | 0.00 | 73 | 1017.9 |
| 20260506210055 | 52 | 0 | 0.0 | 1.7 | 0.00 | 0.00 | 0.00 | 73 | 1017.7 |
| 20260506204557 | 52 | 0 | 0.0 | 2.6 | 0.00 | 0.00 | 0.00 | 73 | 1017.7 |
| 20260506203053 | 52 | 0 | 0.0 | 2.6 | 0.00 | 0.00 | 0.00 | 72 | 1017.6 |
| 20260506201558 | 52 | 108 | 0.0 | 2.6 | 0.00 | 0.00 | 0.00 | 71 | 1017.5 |
| 20260506200058 | 53 | 150 | 0.0 | 1.7 | 0.00 | 0.00 | 0.00 | 71 | 1017.4 |
| 20260506194604 | 53 | 78 | 0.9 | 2.6 | 0.00 | 0.00 | 0.00 | 70 | 1017.0 |
| 20260506193053 | 53 | 0 | 0.0 | 2.6 | 0.00 | 0.00 | 0.00 | 70 | 1017.0 |
| 20260506191553 | 53 | 288 | 0.9 | 3.5 | 0.00 | 0.00 | 0.00 | 70 | 1016.8 |
| 20260506190056 | 53 | 30 | 0.9 | 3.5 | 0.00 | 0.00 | 0.00 | 70 | 1016.8 |
| 20260506184607 | 53 | 239 | 0.9 | 4.3 | 0.00 | 0.00 | 0.00 | 70 | 1016.5 |
| 20260506183103 | 53 | 333 | 1.7 | 7.0 | 0.00 | 0.00 | 0.00 | 69 | 1016.4 |
| 20260506181554 | 54 | 24 | 1.7 | 7.8 | 0.00 | 0.00 | 0.00 | 67 | 1016.2 |
| 20260506180055 | 54 | 328 | 3.5 | 7.8 | 0.00 | 0.00 | 0.00 | 65 | 1015.8 |
| 20260506174555 | 55 | 12 | 1.7 | 7.0 | 0.00 | 0.00 | 0.00 | 67 | 1015.8 |
| 20260506173054 | 55 | 5 | 4.3 | 9.6 | 0.00 | 0.00 | 0.00 | 63 | 1015.7 |
| 20260506171555 | 56 | 355 | 2.6 | 7.8 | 0.00 | 0.00 | 0.00 | 61 | 1015.6 |
| 20260506170107 | 57 | 360 | 3.5 | 8.7 | 0.00 | 0.00 | 0.00 | 63 | 1015.4 |
| 20260506164556 | 56 | 26 | 3.5 | 8.7 | 0.00 | 0.00 | 0.00 | 64 | 1015.2 |
| 20260506163106 | 56 | 12 | 3.5 | 8.7 | 0.00 | 0.00 | 0.00 | 66 | 1015.0 |
| 20260506161550 | 57 | 355 | 4.3 | 9.6 | 0.00 | 0.00 | 0.00 | 65 | 1014.8 |
| 20260506160056 | 58 | 5 | 4.3 | 9.6 | 0.00 | 0.00 | 0.00 | 64 | 1014.9 |
| 20260506154555 | 57 | 329 | 3.5 | 7.0 | 0.00 | 0.00 | 0.00 | 69 | 1014.9 |
| 20260506153054 | 57 | 338 | 3.5 | 6.1 | 0.00 | 0.00 | 0.00 | 69 | 1015.0 |
| 20260506151555 | 56 | 332 | 3.5 | 7.0 | 0.00 | 0.00 | 0.00 | 70 | 1014.9 |